THORAD AGENA D DEB, 42547

Orbit data source: Space-Track

THORAD AGENA D DEB, 42547 is space debris in SSO originally from a launch on Wed, 08 Apr 1970 UTC launched from the Air Force Western Test Range (AFWTR). Debris objects in space refer to the collection of defunct objects orbiting the Earth. Examples of debris include non-operational satellites, rocket bodies, and fragments generated from explosions, collisions, or faulty payload assembly.

Loading next visibility...
Identifier
42547, 1970-025TD
Orbit
SSO
Country
Flag of USUS
Related business
Manufacturer
Unknown
Mission
Spacecraft
Bus & Motor
Unknown
Mass
Unknown
Launch date (UTC)
1970-04-08 (56 years ago)
Launch vehicle
Unknown
Launch site
Air Force Western Test Range (AFWTR)
Object type
Payload
Rocket body
Debris
Shape & HBR
Unknown shape, 0.1 m
Radar Cross Section
Small (<0.1 m²)

Expand to show TLE details & history
Last TLE update: 3 days ago

TLE from 3 days ago
0 THORAD AGENA D DEB
1 42547U 70025TD  26170.48998899  .00001047  00000-0  97138-3 0  9999
2 42547 100.1740 183.3966 0016223  97.6768 262.6227 13.84948591632910
Epoch: 2026-06-19T11:45Z
TLE epoch observation values (Epoch: 2026-06-19T11:45:35.048Z)
Latitude
-0.00005°
Longitude
99.28235°
Altitude
950.748 km
Speed
7.376 km/s
True Right ascension
12h 13m 35s
True Declination
0° 00' 00"
Sunlit
Object was in daylight at epoch
Visualization orbit readout
Latitude
Unknown
Longitude
Unknown
Altitude
Unknown
Speed
Unknown
Apparent Right ascension
Unknown
Apparent Declination
Unknown
Sunlit
N/A
Visualization observer readout
Local Sidereal Time
21:38:27
Azimuth
Unknown
Elevation
Unknown
Doppler factor
Unknown
Orbital elements
Apogee altitude
955.545 km
Perigee altitude
931.789 km
Semi-major axis
7,321.804 km
Eccentricity
0.00162
Inclination
100.174°
RAAN
183.3966°
Arg. of periapsis
97.6768°
True anomaly
262.43839°
Mean anomaly
262.6227°
Eccentric anomaly
262.53054°
Mean motion
3.4643 °/min
Orbital period
103.92 mins
BSTAR
0.00097138
Loading maneuver chart data...
Computing Atmospheric mass density...

Documentation

Showing up to 5 results
|